Weather reports worldwide

Advertisment
Clemson, sc, United States of America (2074331): temperature & dewpoint: 30.05.2020 14:00:00 - 05.06.2020 14:00:00 (EDT)Clemson, sc, United States of America (2074331): wind speed: 30.05.2020 14:00:00 - 05.06.2020 14:00:00 (EDT)Clemson, sc, United States of America (2074331): wind direction: 30.05.2020 14:00:00 - 05.06.2020 14:00:00 (EDT)Clemson, sc, United States of America (2074331): reduced air pressure: 30.05.2020 14:00:00 - 05.06.2020 14:00:00 (EDT)Clemson, sc, United States of America (2074331): visibility: 30.05.2020 14:00:00 - 05.06.2020 14:00:00 (EDT)
Date & Time tt [°C] td [°C] ff [km/h] ff [kn] dd ppp [hPa] vv [km]
05.06.2020 14:00:00 28,3 20,0 15 8 WSW 1013,6 16
05.06.2020 13:00:00 27,8 20,0 15 8 WSW 1014,1 16
05.06.2020 12:00:00 25,6 20,0 11 6 - 1014,8 16
05.06.2020 11:00:00 25,0 20,6 9 5 - 1014,9 16
05.06.2020 10:00:00 22,8 20,0 5 3 - 1015,4 11
05.06.2020 09:00:00 21,7 20,0 5 3 - 1015,2 15
05.06.2020 08:00:00 21,1 19,4 8 4 - 1014,8 16
05.06.2020 07:00:00 20,6 19,4 0 0 N 1014,7 11
05.06.2020 06:00:00 20,6 19,4 0 0 N 1014,1 16
05.06.2020 05:00:00 20,6 19,4 0 0 N 1013,8 16
05.06.2020 04:00:00 20,6 18,9 0 0 N 1014,0 16
05.06.2020 03:00:00 20,6 18,9 0 0 N 1014,2 16
05.06.2020 02:00:00 20,6 18,9 0 0 N 1014,4 16
05.06.2020 01:00:00 20,0 18,9 0 0 N 1014,6 16
05.06.2020 00:00:00 21,1 18,9 0 0 N 1014,8 16
04.06.2020 23:00:00 21,1 18,9 0 0 N 1015,3 16
04.06.2020 22:00:00 21,7 18,9 0 0 N 1014,8 16
04.06.2020 21:00:00 22,2 19,4 0 0 N 1014,4 16
04.06.2020 20:00:00 22,8 19,4 8 4 - 1013,4 16
04.06.2020 19:00:00 23,9 18,3 9 5 - 1012,9 16
04.06.2020 18:00:00 28,9 20,6 11 6 - 1012,1 16
04.06.2020 17:00:00 30,0 18,3 9 5 - 1011,7 16
04.06.2020 16:00:00 30,0 18,9 9 5 - 1012,2 16
04.06.2020 15:00:00 30,0 19,4 8 4 - 1012,6 16
04.06.2020 14:00:00 29,4 19,4 8 4 - 1013,4 16
04.06.2020 13:00:00 28,9 20,0 13 7 S 1014,1 16
04.06.2020 12:00:00 28,3 20,0 9 5 - 1014,2 16
04.06.2020 11:00:00 27,2 20,6 9 5 WNW 1014,2 16
04.06.2020 10:00:00 23,9 20,0 0 0 N 1014,6 16
04.06.2020 09:00:00 22,8 20,0 0 0 N 1014,4 16
04.06.2020 08:00:00 21,1 19,4 5 3 WSW 1014,4 11
04.06.2020 07:00:00 20,0 18,9 0 0 N 1014,0 10
04.06.2020 06:00:00 20,0 18,9 0 0 N 1013,3 15
04.06.2020 05:00:00 20,6 18,9 5 3 WSW 1013,0 16
04.06.2020 04:00:00 21,1 18,9 0 0 N 1012,9 16
04.06.2020 03:00:00 21,7 18,9 5 3 - 1012,9 16
04.06.2020 02:00:00 22,2 18,9 5 3 - 1013,6 16
04.06.2020 01:00:00 22,8 19,4 0 0 N 1014,1 16
04.06.2020 00:00:00 23,9 19,4 0 0 N 1014,1 16
03.06.2020 23:00:00 24,4 19,4 0 0 N 1014,0 16
03.06.2020 22:00:00 25,0 20,0 0 0 N 1013,2 16
03.06.2020 21:00:00 25,6 20,0 0 0 N 1012,8 16
03.06.2020 20:00:00 27,2 20,6 9 5 - 1012,6 16
03.06.2020 19:00:00 28,3 20,6 9 5 - 1012,4 16
03.06.2020 18:00:00 28,3 21,1 13 7 SW 1012,7 16
03.06.2020 17:00:00 28,9 21,1 9 5 - 1012,8 16
03.06.2020 16:00:00 30,6 18,9 8 4 - 1012,9 16
03.06.2020 15:00:00 30,6 19,4 18 10 W 1013,3 16
03.06.2020 14:00:00 29,4 20,0 9 5 - 1014,0 16
03.06.2020 13:00:00 29,4 18,9 15 8 WSW 1015,0 16
03.06.2020 12:00:00 28,9 19,4 16 9 W 1015,7 16
03.06.2020 11:00:00 27,8 18,9 18 10 W 1016,2 16
03.06.2020 10:00:00 26,1 18,3 22 12 W 1016,6 16
03.06.2020 09:00:00 23,9 17,8 16 9 WSW 1016,8 16
03.06.2020 08:00:00 20,6 16,7 15 8 W 1017,1 16
03.06.2020 07:00:00 18,9 16,1 13 7 WSW 1017,2 16
03.06.2020 06:00:00 19,4 16,1 9 5 WSW 1017,1 16
03.06.2020 05:00:00 19,4 16,7 13 7 W 1016,9 16
03.06.2020 04:00:00 20,0 16,7 13 7 WSW 1017,1 16
03.06.2020 03:00:00 21,1 16,7 15 8 WSW 1017,3 16
03.06.2020 02:00:00 21,7 16,7 13 7 WSW 1017,9 16
03.06.2020 01:00:00 21,7 16,7 9 5 WSW 1018,5 16
03.06.2020 00:00:00 22,2 16,7 8 4 WSW 1018,6 16
02.06.2020 23:00:00 22,8 16,7 5 3 - 1018,6 16
02.06.2020 22:00:00 23,3 16,7 8 4 SW 1018,4 16
02.06.2020 21:00:00 23,9 16,7 0 0 N 1018,3 16
02.06.2020 20:00:00 25,6 16,7 8 4 SSW 1018,2 16
02.06.2020 19:00:00 26,7 16,1 8 4 - 1018,0 16
02.06.2020 18:00:00 27,2 16,7 9 5 - 1018,3 16
02.06.2020 17:00:00 27,2 17,2 8 4 - 1018,9 16
02.06.2020 16:00:00 27,2 17,8 8 4 - 1019,7 16
02.06.2020 15:00:00 26,7 17,2 18 10 WSW 1020,5 16
02.06.2020 14:00:00 26,1 16,7 11 6 - 1021,5 16
02.06.2020 13:00:00 26,1 16,7 13 7 SW 1022,0 16
02.06.2020 12:00:00 24,4 16,1 11 6 W 1022,8 16
02.06.2020 11:00:00 23,3 15,6 21 11 W 1023,3 16
02.06.2020 10:00:00 22,8 16,1 18 10 W 1023,7 16
02.06.2020 09:00:00 20,6 15,0 13 7 W 1023,6 16
02.06.2020 08:00:00 17,8 15,0 0 0 N 1023,3 11
02.06.2020 07:00:00 16,7 15,0 0 0 N 1023,0 8
02.06.2020 06:00:00 15,6 14,4 0 0 N 1022,8 16
02.06.2020 05:00:00 16,7 15,0 0 0 N 1022,6 16
02.06.2020 04:00:00 16,1 14,4 0 0 N 1022,7 16
02.06.2020 03:00:00 16,7 15,0 0 0 N 1022,6 16
02.06.2020 02:00:00 17,2 15,6 0 0 N 1022,7 16
02.06.2020 01:00:00 18,3 15,6 0 0 N 1023,0 16
02.06.2020 00:00:00 18,9 14,4 0 0 N 1023,2 16
01.06.2020 23:00:00 19,4 15,0 0 0 N 1023,3 16
01.06.2020 22:00:00 20,0 14,4 0 0 N 1023,0 16
01.06.2020 21:00:00 21,7 13,9 0 0 N 1022,8 16
01.06.2020 20:00:00 22,8 13,3 0 0 N 1022,2 16
01.06.2020 19:00:00 24,4 12,2 0 0 N 1022,1 16
01.06.2020 18:00:00 25,0 11,1 5 3 ESE 1022,6 16
01.06.2020 17:00:00 24,4 11,1 5 3 - 1022,9 16
01.06.2020 16:00:00 24,4 10,6 9 5 E 1023,4 16
01.06.2020 15:00:00 23,9 10,0 8 4 - 1023,8 16
01.06.2020 14:00:00 23,3 9,4 8 4 - 1024,7 16
01.06.2020 13:00:00 22,8 8,9 8 4 - 1025,1 16
01.06.2020 12:00:00 21,7 8,9 8 4 - 1025,4 16
01.06.2020 11:00:00 21,1 7,8 13 7 E 1025,5 16
01.06.2020 10:00:00 20,0 7,8 18 10 ENE 1025,5 16
01.06.2020 09:00:00 17,8 7,8 16 9 ENE 1025,1 16
01.06.2020 08:00:00 17,8 9,4 13 7 NE 1024,3 16
01.06.2020 07:00:00 16,7 10,6 8 4 N 1023,7 16
01.06.2020 06:00:00 17,8 9,4 8 4 ENE 1022,8 16
01.06.2020 05:00:00 18,9 8,9 5 3 ENE 1022,1 16
01.06.2020 04:00:00 20,0 9,4 8 4 E 1021,3 16
01.06.2020 03:00:00 20,0 10,6 5 3 ENE 1021,2 16
01.06.2020 02:00:00 20,0 10,6 8 4 NNE 1021,1 16
01.06.2020 01:00:00 20,6 12,2 9 5 NNE 1020,7 16
01.06.2020 00:00:00 22,2 11,7 8 4 NE 1020,3 16
31.05.2020 23:00:00 22,2 15,6 11 6 ENE 1019,8 16
31.05.2020 22:00:00 22,2 17,8 11 6 NE 1019,3 16
31.05.2020 21:00:00 22,8 16,7 0 0 N 1018,6 16
31.05.2020 20:00:00 26,1 16,7 5 3 WSW 1013,6 16
31.05.2020 19:00:00 25,0 15,6 5 3 SSE 1017,6 16
31.05.2020 18:00:00 25,0 14,4 5 3 E 1017,8 16
31.05.2020 17:00:00 26,7 15,0 5 3 - 1017,8 16
31.05.2020 16:00:00 25,0 15,0 9 5 E 1018,5 16
31.05.2020 15:00:00 26,1 15,6 8 4 - 1018,5 16
31.05.2020 14:00:00 26,1 15,6 8 4 - 1018,8 16
31.05.2020 13:00:00 25,6 15,6 9 5 - 1019,1 16
31.05.2020 12:00:00 24,4 14,4 11 6 ESE 1019,4 16
31.05.2020 11:00:00 24,4 13,9 16 9 E 1019,3 16
31.05.2020 10:00:00 23,3 15,6 9 5 NE 1019,2 16
31.05.2020 09:00:00 20,6 16,1 0 0 N 1018,6 16
31.05.2020 08:00:00 19,4 16,1 5 3 N 1017,9 16
31.05.2020 07:00:00 18,3 14,4 8 4 N 1017,0 16
31.05.2020 06:00:00 18,3 14,4 5 3 NNE 1016,4 16
31.05.2020 05:00:00 18,9 13,9 8 4 NW 1016,2 16
31.05.2020 04:00:00 18,3 14,4 5 3 NW 1015,7 16
31.05.2020 03:00:00 18,9 15,0 0 0 N 1015,8 16
31.05.2020 02:00:00 19,4 14,4 0 0 N 1015,8 16
31.05.2020 01:00:00 21,7 14,4 0 0 N 1015,7 16
31.05.2020 00:00:00 22,8 14,4 8 4 N 1015,6 16
30.05.2020 23:00:00 22,8 15,6 0 0 N 1015,6 16
30.05.2020 22:00:00 24,4 15,6 5 3 NNE 1015,1 16
30.05.2020 21:00:00 25,6 16,7 11 6 NNE 1014,3 16
30.05.2020 20:00:00 26,1 16,7 5 3 WSW 1013,6 16
30.05.2020 19:00:00 27,8 16,7 8 4 SW 1013,2 16
30.05.2020 18:00:00 28,3 17,2 9 5 SW 1013,1 16
30.05.2020 17:00:00 28,3 16,7 11 6 SW 1013,5 16
30.05.2020 16:00:00 27,8 17,2 8 4 SW 1014,0 16
30.05.2020 15:00:00 26,7 17,8 0 0 N 1014,7 16
30.05.2020 14:00:00 27,8 17,8 8 4 - 1015,1 16

tt = temperature
td = dewpoint
ff = wind speed
dd = wind direction
ppp = reduced air pressure
vv = visibility

Next stations